Regional Weather Roundup
Issued by NWS Nashville, TN

Home | Current Version | Previous Version | Text Only | Print | Product List | Glossary On
Versions: 1 2 3 4 5 6 7 8 9 10 11 12 13 14 15 16 17 18 19 20 21 22 23 24 25 26 27 28 29 30 31 32 33 34 35 36 37 38 39 40 41 42 43 44 45 46 47 48 49 50
000
ASUS44 KOHX 201815
RWROHX
MIDDLE TENNESSEE HOURLY WEATHER ROUNDUP
NATIONAL WEATHER SERVICE NASHVILLE TN
100 PM CDT SAT SEP 20 2014

NOTE: "FAIR" INDICATES FEW OR NO CLOUDS BELOW 12,000 FEET WITH
NO SIGNIFICANT WEATHER AND/OR OBSTRUCTIONS TO VISIBILITY.

* THESE REPORTS ARE NOT UNDER NWS QUALITY CONTROL AND MAY NOT
  REPORT WEATHER SUCH AS PRECIPITATION AND FOG.


TNZ005>011-023>034-057-059-062>066-078-080-201900
...NORTHERN MIDDLE TENNESSEE...

CITY           SKY/WX    TMP DP  RH WIND       PRES   REMARKS
CLARKSVILLE    MOSUNNY   83  67  58 SW9       30.07F
CROSSVILLE     SUNNY     77  58  51 SW3       30.16F
GALLATIN         N/A     84  66  54 S9        30.10F
DICKSON        SUNNY     81  66  61 SW9       30.10F
LEBANON        PTSUNNY   83  61  47 SW6       30.09F
LIVINGSTON     SUNNY     79  62  55 S8        30.13F
NASHVILLE      MOSUNNY   85  63  47 S9        30.09F
WEST NASHVILLE   N/A     84  63  48 S9        30.08F
PORTLAND       SUNNY     82  64  54 S10       30.09F
SMYRNA         MOSUNNY   85  64  49 W6        30.10F
SPARTA         SUNNY     82  64  54 SW3       30.11F
$$
TNZ056-058-060-061-075>077-079-093>097-201900
...SOUTHERN MIDDLE TENNESSEE...

CITY           SKY/WX    TMP DP  RH WIND       PRES   REMARKS
COLUMBIA       SUNNY     84  66  54 VRB5      30.08F
FAYETTEVILLE   SUNNY     81  61  50 S12       30.11F
LEWISBURG      SUNNY     85  64  49 VRB5      30.10F
MCMINNVILLE    SUNNY     84  64  51 S3        30.11F
MURFREESBORO   SUNNY     84  61  45 CALM      30.09F
SHELBYVILLE    SUNNY     84  64  51 SW9       30.11F
TULLAHOMA      SUNNY     81  61  50 SW7       30.13F
WINCHESTER     SUNNY     82  63  51 S8        30.12F
$$


...KEY TO REMARKS...
VSB - VISIBILITY IN MILES
WCI - WIND CHILL INDEX
HX  - HEAT INDEX



USA.gov is the U.S. government's official web portal to all federal, state and local government web resources and services.